Weather History for Sheldon, IA

Change the Weather History Date:

Friday, June 28, 2013

  Actual Average Record
Temperature  
Mean Temperature 72 °F -  
Max Temperature 84 °F 84 °F 100 °F (1988)
Min Temperature 60 °F 60 °F 42 °F (2004)
Cooling Degree Days 7    
Growing Degree Days 22 (Base 50)    
Moisture  
Dew Point 55 °F    
Average Humidity 54    
Maximum Humidity 94    
Minimum Humidity 29    
Precipitation  
Precipitation 0.00 in - - ()
Sea Level Pressure  
Sea Level Pressure 29.93 in    
Wind  
Wind Speed 14 mph (NW)    
Max Wind Speed 31 mph    
Max Gust Speed 40 mph    
Visibility 10 miles    
Events      
Averages and records for this station are not official NWS values.
T = Trace of Precipitation, MM = Missing Value Source: NWS Daily Summary

Daily Weather History Graph

Daily Weather History Graph

Search for Another Location

Airport:

Trip Planner

Search our weather history database for the weather conditions in past years. The results will help you decide how hot, cold, wet, or windy it might be!

Date:

Astronomy

Jun. 28, 2013 Rise Set
Actual Time 5:45 AM CDT 9:07 PM CDT
Civil Twilight 5:10 AM CDT 9:42 PM CDT
Nautical Twilight 4:24 AM CDT 10:28 PM CDT
Astronomical Twilight 3:26 AM CDT 11:25 PM CDT
Moon No Moon Rise 12:05 PM CDT (6/28)
Length of Visible Light 16h 32m
Length of Day
15h 21m
Waning Gibbous, 66% of the Moon is Illuminated
Jun 28
Waning Gibbous
Jun 29
Last Quarter
Jul 8
New
Jul 15
First Quarter
Jul 22
Full

Hourly Weather History & Observations

Time (CDT) Temp. Heat Index Dew Point Humidity Pressure Visibility Wind Dir Wind Speed Gust Speed Precip Events Conditions
12:15 AM 71.6 °F - 59.0 °F 64% 29.94 in 10.0 mi West 10.4 mph - N/A   Clear
12:35 AM 73.4 °F - 60.8 °F 65% 29.94 in 10.0 mi WNW 9.2 mph - N/A   Clear
12:55 AM 69.8 °F - 60.8 °F 73% 29.95 in 10.0 mi NW 8.1 mph - N/A   Clear
1:35 AM 68.0 °F - 60.8 °F 78% 29.95 in 10.0 mi WNW 6.9 mph - N/A   Unknown
1:55 AM 66.2 °F - 60.8 °F 83% 29.96 in 10.0 mi WNW 5.8 mph - N/A   Clear
2:15 AM 66.2 °F - 60.8 °F 83% 29.96 in 10.0 mi NW 8.1 mph - N/A   Clear
2:35 AM 66.2 °F - 60.8 °F 83% 29.96 in 10.0 mi NW 6.9 mph - N/A   Clear
2:55 AM 68.0 °F - 59.0 °F 73% 29.96 in 10.0 mi WNW 6.9 mph - N/A   Clear
3:15 AM 66.2 °F - 59.0 °F 78% 29.96 in 10.0 mi NW 8.1 mph - N/A   Clear
3:35 AM 64.4 °F - 57.2 °F 77% 29.96 in 10.0 mi NW 6.9 mph - N/A   Clear
3:55 AM 64.4 °F - 57.2 °F 77% 29.96 in 10.0 mi NW 5.8 mph - N/A   Clear
4:15 AM 64.4 °F - 57.2 °F 77% 29.96 in 10.0 mi NW 6.9 mph - N/A   Unknown
4:35 AM 64.4 °F - 57.2 °F 77% 29.96 in 10.0 mi NW 5.8 mph - N/A   Unknown
4:55 AM 62.6 °F - 59.0 °F 88% 29.96 in 10.0 mi NW 4.6 mph - N/A   Unknown
5:15 AM 60.8 °F - 59.0 °F 94% 29.95 in 10.0 mi NW 5.8 mph - N/A   Clear
5:35 AM 60.8 °F - 59.0 °F 94% 29.96 in 10.0 mi NW 5.8 mph - N/A   Clear
5:55 AM 60.8 °F - 59.0 °F 94% 29.96 in 10.0 mi NW 5.8 mph - N/A   Clear
6:15 AM 60.8 °F - 59.0 °F 94% 29.96 in 10.0 mi NW 5.8 mph - N/A   Clear
6:35 AM 62.6 °F - 59.0 °F 88% 29.96 in 10.0 mi NW 6.9 mph - N/A   Clear
6:55 AM 64.4 °F - 59.0 °F 83% 29.96 in 10.0 mi WNW 8.1 mph - N/A   Clear
7:55 AM 69.8 °F - 59.0 °F 68% 29.97 in 10.0 mi NW 10.4 mph - N/A   Clear
8:15 AM 71.6 °F - 59.0 °F 64% 29.97 in 10.0 mi NW 12.7 mph - N/A   Clear
8:35 AM 73.4 °F - 59.0 °F 61% 29.97 in 10.0 mi NW 15.0 mph - N/A   Clear
8:55 AM 75.2 °F - 59.0 °F 57% 29.97 in 10.0 mi NW 12.7 mph - N/A   Clear
9:15 AM 75.2 °F - 57.2 °F 53% 29.97 in 10.0 mi NNW 16.1 mph - N/A   Clear
9:35 AM 77.0 °F - 55.4 °F 47% 29.97 in 10.0 mi NNW 19.6 mph 25.3 mph N/A   Clear
9:55 AM 77.0 °F - 55.4 °F 47% 29.96 in 10.0 mi NNW 19.6 mph 26.5 mph N/A   Clear
10:15 AM 78.8 °F - 55.4 °F 44% 29.95 in 10.0 mi NW 21.9 mph 29.9 mph N/A   Clear
10:35 AM 78.8 °F - 55.4 °F 44% 29.95 in 10.0 mi NNW 21.9 mph 27.6 mph N/A   Clear
10:55 AM 78.8 °F - 55.4 °F 44% 29.94 in 10.0 mi NW 23.0 mph 32.2 mph N/A   Partly Cloudy
11:15 AM 80.6 °F 80.5 °F 55.4 °F 42% 29.94 in 10.0 mi NW 21.9 mph 33.4 mph N/A   Partly Cloudy
11:35 AM 80.6 °F 80.5 °F 55.4 °F 42% 29.94 in 10.0 mi NNW 26.5 mph 40.3 mph N/A   Partly Cloudy
11:55 AM 80.6 °F 80.3 °F 53.6 °F 39% 29.95 in 10.0 mi NW 25.3 mph 33.4 mph N/A   Scattered Clouds
12:15 PM 80.6 °F 80.3 °F 53.6 °F 39% 29.94 in 10.0 mi NNW 26.5 mph 40.3 mph N/A   Scattered Clouds
12:35 PM 82.4 °F - 51.8 °F 35% 29.94 in 10.0 mi NW 27.6 mph 40.3 mph N/A   Scattered Clouds
12:55 PM 82.4 °F - 51.8 °F 35% 29.93 in 10.0 mi NNW 27.6 mph 35.7 mph N/A   Partly Cloudy
1:15 PM 82.4 °F - 50.0 °F 32% 29.93 in 10.0 mi NW 28.8 mph 39.1 mph N/A   Scattered Clouds
1:35 PM 84.2 °F - 50.0 °F 30% 29.92 in 9.0 mi NNW 29.9 mph 39.1 mph N/A   Partly Cloudy
1:55 PM 82.4 °F - 51.8 °F 35% 29.92 in 10.0 mi NW 26.5 mph 35.7 mph N/A   Mostly Cloudy
2:15 PM 84.2 °F - 50.0 °F 30% 29.92 in 9.0 mi NNW 31.1 mph 39.1 mph N/A   Partly Cloudy
2:35 PM 84.2 °F - 50.0 °F 30% 29.91 in 10.0 mi NW 27.6 mph 39.1 mph N/A   Partly Cloudy
2:55 PM 84.2 °F - 48.2 °F 29% 29.91 in 10.0 mi North - - N/A   Partly Cloudy
3:15 PM 84.2 °F - 48.2 °F 29% 29.91 in 10.0 mi NNW 29.9 mph 39.1 mph N/A   Clear
3:35 PM 84.2 °F - 50.0 °F 30% 29.91 in 10.0 mi NNW 25.3 mph 36.8 mph N/A   Partly Cloudy
3:55 PM 84.2 °F - 50.0 °F 30% 29.91 in 10.0 mi NW 26.5 mph 36.8 mph N/A   Partly Cloudy
4:15 PM 82.4 °F - 50.0 °F 32% 29.91 in 10.0 mi NW 28.8 mph 36.8 mph N/A   Partly Cloudy
4:35 PM 82.4 °F - 51.8 °F 35% 29.91 in 10.0 mi NNW 24.2 mph 35.7 mph N/A   Scattered Clouds
4:55 PM 82.4 °F - 50.0 °F 32% 29.91 in 10.0 mi NNW 23.0 mph 40.3 mph N/A   Scattered Clouds
5:15 PM 84.2 °F - 51.8 °F 33% 29.91 in 10.0 mi NNW 25.3 mph 36.8 mph N/A   Scattered Clouds
5:35 PM 82.4 °F - 51.8 °F 35% 29.91 in 10.0 mi NW 25.3 mph 34.5 mph N/A   Scattered Clouds
5:55 PM 80.6 °F - 51.8 °F 37% 29.90 in 10.0 mi NNW 25.3 mph 34.5 mph N/A   Partly Cloudy
6:15 PM 82.4 °F - 51.8 °F 35% 29.90 in 10.0 mi NNW 26.5 mph 34.5 mph N/A   Clear
6:35 PM 82.4 °F - 50.0 °F 32% 29.89 in 10.0 mi NNW 31.1 mph 40.3 mph N/A   Scattered Clouds
6:55 PM 80.6 °F - 50.0 °F 34% 29.90 in 10.0 mi NNW 29.9 mph 38.0 mph N/A   Partly Cloudy
7:15 PM 80.6 °F - 51.8 °F 37% 29.90 in 10.0 mi NNW 25.3 mph 38.0 mph N/A   Clear
7:35 PM 80.6 °F - 51.8 °F 37% 29.90 in 10.0 mi NNW 26.5 mph 34.5 mph N/A   Clear
7:55 PM 78.8 °F - 51.8 °F 39% 29.89 in 10.0 mi NNW 24.2 mph 31.1 mph N/A   Clear
8:15 PM 78.8 °F - 51.8 °F 39% 29.89 in 10.0 mi NNW 18.4 mph 26.5 mph N/A   Clear
8:35 PM 77.0 °F - 51.8 °F 41% 29.89 in 10.0 mi NNW 19.6 mph 26.5 mph N/A   Clear
8:55 PM 77.0 °F - 53.6 °F 44% 29.90 in 10.0 mi NNW 13.8 mph - N/A   Clear
9:15 PM 73.4 °F - 53.6 °F 50% 29.90 in 10.0 mi NW 9.2 mph - N/A   Clear
9:35 PM 73.4 °F - 53.6 °F 50% 29.90 in 10.0 mi NNW 11.5 mph - N/A   Clear
9:55 PM 71.6 °F - 53.6 °F 53% 29.90 in 10.0 mi NNW 10.4 mph - N/A   Clear
10:15 PM 71.6 °F - 53.6 °F 53% 29.90 in 10.0 mi NW 8.1 mph - N/A   Clear
10:35 PM 68.0 °F - 53.6 °F 60% 29.90 in 10.0 mi NW 8.1 mph - N/A   Clear
10:55 PM 68.0 °F - 53.6 °F 60% 29.90 in 10.0 mi NW 8.1 mph - N/A   Clear
11:15 PM 66.2 °F - 53.6 °F 64% 29.90 in 10.0 mi NW 5.8 mph - N/A   Clear
11:35 PM 66.2 °F - 53.6 °F 64% 29.90 in 10.0 mi NNW 5.8 mph - N/A   Clear
11:55 PM 64.4 °F - 53.6 °F 68% 29.89 in 10.0 mi NW 6.9 mph - N/A   Clear